Simultaneous Nadir Overpasses (SNOs) Predictions

Prediction of SNOs between FY3D and METOP-A Satellite Orbit:

Table of predicted SNOs for the next 14.0 days since TLE Epoch: 3/20/2021
Index Date (FY3D) Time (FY3D) Lat,Lon (FY3D) SZA (FY3D ) Date (METOP-A) Time (METOP-A) Lat,Lon (METOP-A) SZA (METOP-A ) Distance(km) Time Diff (sec)
1 03/23/2021 16:10:05 77.30, -81.66 76.78 03/23/2021 16:11:09 77.29, -77.68 76.47 97.36 64
2 03/23/2021 17:00:46 -77.15, 86.30 103.43 03/23/2021 17:01:54 -77.13, 88.98 103.66 66.36 68
3 03/23/2021 17:51:27 77.00,-105.74 76.37 03/23/2021 17:52:38 76.96,-104.35 76.21 35.09 71
4 03/23/2021 18:42:09 -76.90, 62.02 103.78 03/23/2021 18:43:22 -76.85, 62.52 103.89 13.94 73
5 03/23/2021 19:32:51 76.79,-130.23 76.07 03/23/2021 19:34:03 76.81,-130.29 76.08 3.04 72
6 03/23/2021 20:23:36 -76.81, 36.99 103.92 03/23/2021 20:24:44 -76.83, 37.11 103.93 3.42 68
7 03/23/2021 21:14:20 76.79,-155.60 76.05 03/23/2021 21:15:25 76.79,-155.70 76.04 2.60 65
8 03/23/2021 22:05:05 -76.81, 11.62 103.94 03/23/2021 22:06:06 -76.81, 11.69 103.97 1.86 61
9 03/23/2021 22:55:49 76.79, 179.03 76.02 03/23/2021 22:56:46 76.82, 179.05 76.03 3.12 57
10 03/23/2021 23:46:34 -76.81, -13.75 103.97 03/23/2021 23:47:28 -76.79, -13.72 104.01 2.79 54
11 03/24/2021 00:37:18 76.79, 153.65 75.99 03/24/2021 00:38:08 76.80, 153.64 75.99 0.80 50
12 03/24/2021 01:28:03 -76.81, -39.13 104.00 03/24/2021 01:28:49 -76.81, -38.97 104.02 4.06 46
13 03/24/2021 02:18:47 76.79, 128.28 75.97 03/24/2021 02:19:30 76.78, 128.22 75.94 2.09 43
14 03/24/2021 03:09:31 -76.77, -64.33 104.08 03/24/2021 03:10:11 -76.79, -64.38 104.06 3.00 40
15 03/24/2021 04:00:16 76.79, 102.90 75.94 03/24/2021 04:00:51 76.80, 102.98 75.93 2.23 35
16 03/24/2021 04:51:00 -76.77, -89.70 104.10 03/24/2021 04:51:33 -76.77, -89.80 104.10 2.47 33
17 03/24/2021 05:41:45 76.79, 77.53 75.91 03/24/2021 05:42:13 76.78, 77.56 75.89 1.46 28
18 03/24/2021 06:32:29 -76.77,-115.08 104.13 03/24/2021 06:32:54 -76.80,-115.04 104.11 3.19 25
19 03/24/2021 07:23:14 76.79, 52.15 75.89 03/24/2021 07:23:35 76.76, 52.15 75.85 3.49 21
20 03/24/2021 08:13:58 -76.77,-140.45 104.16 03/24/2021 08:14:16 -76.78,-140.46 104.16 0.82 18
21 03/24/2021 09:04:43 76.79, 26.78 75.86 03/24/2021 09:04:56 76.79, 26.90 75.84 3.22 13
22 03/24/2021 09:55:27 -76.77,-165.83 104.18 03/24/2021 09:55:38 -76.76,-165.87 104.20 1.92 11
23 03/24/2021 10:46:11 76.75, 1.58 75.78 03/24/2021 10:46:18 76.77, 1.49 75.80 2.99 7
24 03/24/2021 11:36:56 -76.78, 168.80 104.21 03/24/2021 11:36:59 -76.79, 168.88 104.21 2.39 3
25 03/24/2021 12:27:40 76.75, -23.80 75.75 03/24/2021 12:27:40 76.75, -23.93 75.76 3.43 0
26 03/24/2021 13:18:25 -76.78, 143.43 104.24 03/24/2021 13:18:21 -76.77, 143.47 104.25 1.46 4
27 03/24/2021 14:09:09 76.75, -49.17 75.73 03/24/2021 14:09:01 76.77, -49.18 75.75 2.24 8
28 03/24/2021 14:59:54 -76.78, 118.05 104.26 03/24/2021 14:59:43 -76.75, 118.05 104.29 3.33 11
29 03/24/2021 15:50:38 76.76, -74.55 75.70 03/24/2021 15:50:23 76.75, -74.59 75.71 1.15 15
30 03/24/2021 16:41:23 -76.78, 92.68 104.29 03/24/2021 16:41:04 -76.77, 92.81 104.30 3.32 19
31 03/24/2021 17:32:07 76.76, -99.92 75.67 03/24/2021 17:31:45 76.73,-100.01 75.67 3.24 22
32 03/24/2021 18:22:51 -76.74, 67.48 104.37 03/24/2021 18:22:26 -76.75, 67.39 104.34 2.96 25
33 03/24/2021 19:13:36 76.76,-125.29 75.65 03/24/2021 19:13:06 76.76,-125.25 75.65 1.15 30
34 03/24/2021 20:04:20 -76.74, 42.10 104.40 03/24/2021 20:03:48 -76.73, 41.98 104.38 3.22 32
35 03/24/2021 20:55:05 76.76,-150.67 75.62 03/24/2021 20:54:28 76.74,-150.67 75.61 1.99 37
36 03/24/2021 21:45:49 -76.74, 16.73 104.43 03/24/2021 21:45:09 -76.76, 16.73 104.39 2.43 40
37 03/24/2021 22:36:34 76.76,-176.04 75.59 03/24/2021 22:35:49 76.77,-175.91 75.60 3.42 45
38 03/24/2021 23:27:18 -76.74, -8.65 104.45 03/24/2021 23:26:31 -76.74, -8.68 104.43 0.97 47
39 03/25/2021 00:18:03 76.76, 158.58 75.57 03/25/2021 00:17:11 76.75, 158.67 75.56 2.81 52
40 03/25/2021 01:08:46 -76.74, -34.02 104.48 03/25/2021 01:07:52 -76.72, -34.10 104.48 2.93 54
41 03/25/2021 01:59:30 76.72, 133.38 75.48 03/25/2021 01:58:32 76.73, 133.26 75.52 3.32 58
42 03/25/2021 02:50:15 -76.74, -59.39 104.51 03/25/2021 02:49:13 -76.75, -59.34 104.49 1.41 62
43 03/25/2021 03:40:59 76.72, 108.01 75.46 03/25/2021 03:39:53 76.75, 108.01 75.51 3.73 66
44 03/25/2021 04:31:44 -76.74, -84.77 104.53 03/25/2021 04:30:35 -76.73, -84.76 104.53 1.74 69
45 03/25/2021 05:22:28 76.72, 82.63 75.43 03/25/2021 05:21:15 76.73, 82.60 75.47 1.68 73
46 03/25/2021 06:13:12 -76.70,-109.97 104.61 03/25/2021 06:11:57 -76.71,-110.17 104.57 5.25 75
47 03/25/2021 07:03:52 76.50, 58.11 75.13 03/25/2021 07:02:42 76.48, 56.36 75.27 45.70 70
48 03/25/2021 07:54:34 -76.39,-134.16 105.02 03/25/2021 07:53:26 -76.37,-136.73 104.82 67.20 68



Historial Predications of SNOs between FY3D and METOP-A
